| time (UTC) | temp F | wind direction | speed knots | gust knots | rain 1hr in | rain 24hr in | rain mn in | humidity % | barometer mb |
| 20260901231056 | 97 | 100 | 0.0 | 0.0 | 0.00 | 0.00 | 0.00 | 45 | 1014.5 |
| 20260901230551 | 97 | 170 | 0.0 | 0.9 | 0.00 | 0.00 | 0.00 | 45 | 1014.3 |
| 20260901230046 | 97 | 133 | 0.9 | 0.9 | 0.00 | 0.00 | 0.00 | 45 | 1014.6 |
| 20260901225541 | 97 | 69 | 0.0 | 0.9 | 0.00 | 0.00 | 0.00 | 45 | 1014.6 |
| 20260901225041 | 97 | 137 | 0.9 | 1.7 | 0.00 | 0.00 | 0.00 | 45 | 1014.4 |
| 20260901224537 | 97 | 184 | 0.0 | 0.0 | 0.00 | 0.00 | 0.00 | 45 | 1014.7 |
| 20260901224033 | 97 | 187 | 0.0 | 0.9 | 0.00 | 0.00 | 0.00 | 45 | 1014.7 |
| 20260901223528 | 97 | 190 | 0.0 | 0.9 | 0.00 | 0.00 | 0.00 | 45 | 1014.5 |
| 20260901223024 | 97 | 208 | 0.9 | 0.9 | 0.00 | 0.00 | 0.00 | 45 | 1014.5 |
| 20260901222520 | 97 | 99 | 0.9 | 1.7 | 0.00 | 0.00 | 0.00 | 45 | 1014.6 |
| 20260901222015 | 97 | 194 | 0.0 | 0.0 | 0.00 | 0.00 | 0.00 | 45 | 1014.6 |
| 20260901221511 | 98 | 132 | 2.6 | 2.6 | 0.00 | 0.00 | 0.00 | 44 | 1014.3 |
| 20260901221006 | 98 | 149 | 1.7 | 1.7 | 0.00 | 0.00 | 0.00 | 43 | 1014.6 |
| 20260901220506 | 97 | 121 | 2.6 | 4.3 | 0.00 | 0.00 | 0.00 | 44 | 1014.6 |
| 20260901220004 | 98 | 67 | 0.9 | 0.9 | 0.00 | 0.00 | 0.00 | 44 | 1014.6 |
| 20260901215502 | 98 | 115 | 0.9 | 0.9 | 0.00 | 0.00 | 0.00 | 43 | 1014.7 |
| 20260901215002 | 98 | 127 | 0.9 | 1.7 | 0.00 | 0.00 | 0.00 | 43 | 1014.6 |
| 20260901214501 | 99 | 97 | 2.6 | 2.6 | 0.00 | 0.00 | 0.00 | 43 | 1014.9 |
| 20260901213955 | 100 | 151 | 0.0 | 0.9 | 0.00 | 0.00 | 0.00 | 42 | 1014.7 |
| 20260901213450 | 100 | 170 | 2.6 | 2.6 | 0.00 | 0.00 | 0.00 | 41 | 1014.8 |
| 20260901212949 | 100 | 89 | 0.9 | 0.9 | 0.00 | 0.00 | 0.00 | 41 | 1014.8 |
| 20260901212445 | 98 | 155 | 2.6 | 2.6 | 0.00 | 0.00 | 0.00 | 43 | 1014.9 |
| 20260901211942 | 98 | 163 | 5.2 | 7.0 | 0.00 | 0.00 | 0.00 | 42 | 1014.9 |
| 20260901211437 | 98 | 198 | 3.5 | 5.2 | 0.00 | 0.00 | 0.00 | 43 | 1015.1 |
| 20260901210933 | 98 | 151 | 0.0 | 0.9 | 0.00 | 0.00 | 0.00 | 43 | 1015.1 |
| 20260901210428 | 99 | 137 | 1.7 | 1.7 | 0.00 | 0.00 | 0.00 | 42 | 1015.2 |
| 20260901205925 | 100 | 357 | 0.9 | 0.9 | 0.00 | 0.00 | 0.00 | 42 | 1015.1 |
| 20260901205425 | 101 | 231 | 1.7 | 1.7 | 0.00 | 0.00 | 0.00 | 41 | 1015.1 |
| 20260901204919 | 102 | 208 | 2.6 | 2.6 | 0.00 | 0.00 | 0.00 | 41 | 1015.0 |
| 20260901204416 | 102 | 217 | 0.9 | 2.6 | 0.00 | 0.00 | 0.00 | 41 | 1015.2 |
| 20260901203916 | 101 | 191 | 0.0 | 0.9 | 0.00 | 0.00 | 0.00 | 41 | 1015.2 |
| 20260901203410 | 102 | 152 | 0.0 | 0.0 | 0.00 | 0.00 | 0.00 | 42 | 1015.4 |
| 20260901202906 | 101 | 176 | 0.0 | 0.0 | 0.00 | 0.00 | 0.00 | 42 | 1015.4 |
| 20260901202400 | 101 | 181 | 2.6 | 2.6 | 0.00 | 0.00 | 0.00 | 42 | 1015.4 |
| 20260901201856 | 100 | 190 | 0.0 | 0.9 | 0.00 | 0.00 | 0.00 | 43 | 1015.3 |
| 20260901201356 | 99 | 117 | 2.6 | 4.3 | 0.00 | 0.00 | 0.00 | 43 | 1015.5 |
| 20260901200850 | 101 | 75 | 2.6 | 4.3 | 0.00 | 0.00 | 0.00 | 41 | 1015.5 |
| 20260901200345 | 100 | 243 | 0.0 | 0.9 | 0.00 | 0.00 | 0.00 | 42 | 1015.7 |
| 20260901195844 | 101 | 156 | 0.0 | 0.0 | 0.00 | 0.00 | 0.00 | 42 | 1015.8 |
| 20260901195337 | 99 | 274 | 2.6 | 4.3 | 0.00 | 0.00 | 0.00 | 43 | 1015.9 |
| 20260901194833 | 100 | 74 | 0.9 | 1.7 | 0.00 | 0.00 | 0.00 | 42 | 1016.1 |
| 20260901194332 | 99 | 113 | 2.6 | 2.6 | 0.00 | 0.00 | 0.00 | 43 | 1016.0 |
| 20260901193829 | 99 | 192 | 6.1 | 7.0 | 0.00 | 0.00 | 0.00 | 43 | 1015.9 |
| 20260901193328 | 100 | 152 | 2.6 | 4.3 | 0.00 | 0.00 | 0.00 | 43 | 1016.1 |
| 20260901192822 | 99 | 117 | 2.6 | 4.3 | 0.00 | 0.00 | 0.00 | 45 | 1016.1 |
| 20260901192318 | 100 | 124 | 0.9 | 1.7 | 0.00 | 0.00 | 0.00 | 43 | 1016.1 |
| 20260901191815 | 100 | 221 | 0.9 | 0.9 | 0.00 | 0.00 | 0.00 | 44 | 1016.3 |
| 20260901191309 | 100 | 175 | 1.7 | 1.7 | 0.00 | 0.00 | 0.00 | 43 | 1016.6 |
| 20260901190806 | 98 | 52 | 0.9 | 1.7 | 0.00 | 0.00 | 0.00 | 44 | 1016.4 |
| 20260901190300 | 98 | 84 | 0.9 | 0.9 | 0.00 | 0.00 | 0.00 | 44 | 1016.4 |
| 20260901185758 | 99 | 59 | 1.7 | 2.6 | 0.00 | 0.00 | 0.00 | 44 | 1016.7 |
| 20260901185257 | 99 | 203 | 0.9 | 0.9 | 0.00 | 0.00 | 0.00 | 44 | 1016.7 |
| 20260901184753 | 98 | 149 | 0.9 | 0.9 | 0.00 | 0.00 | 0.00 | 44 | 1016.8 |
| 20260901184248 | 98 | 121 | 0.0 | 0.9 | 0.00 | 0.00 | 0.00 | 45 | 1017.1 |
| 20260901183744 | 98 | 132 | 0.9 | 1.7 | 0.00 | 0.00 | 0.00 | 44 | 1017.1 |
| 20260901183243 | 97 | 115 | 0.9 | 0.9 | 0.00 | 0.00 | 0.00 | 46 | 1017.1 |
| 20260901182739 | 97 | 189 | 0.9 | 0.9 | 0.00 | 0.00 | 0.00 | 45 | 1017.1 |
| 20260901182238 | 98 | 73 | 1.7 | 2.6 | 0.00 | 0.00 | 0.00 | 45 | 1017.4 |
| 20260901181733 | 98 | 76 | 0.9 | 0.9 | 0.00 | 0.00 | 0.00 | 45 | 1017.3 |
| 20260901181228 | 96 | 141 | 0.9 | 1.7 | 0.00 | 0.00 | 0.00 | 46 | 1017.4 |
| 20260901180727 | 99 | 72 | 0.9 | 0.9 | 0.00 | 0.00 | 0.00 | 44 | 1017.4 |
| 20260901180226 | 97 | 185 | 0.9 | 0.9 | 0.00 | 0.00 | 0.00 | 46 | 1017.7 |
| 20260901175725 | 96 | 170 | 2.6 | 2.6 | 0.00 | 0.00 | 0.00 | 48 | 1017.7 |
| 20260901175221 | 96 | 171 | 0.9 | 0.9 | 0.00 | 0.00 | 0.00 | 49 | 1017.6 |
| 20260901174715 | 96 | 69 | 2.6 | 4.3 | 0.00 | 0.00 | 0.00 | 49 | 1017.9 |
| 20260901174211 | 95 | 216 | 0.0 | 0.9 | 0.00 | 0.00 | 0.00 | 50 | 1017.8 |
| 20260901173706 | 96 | 79 | 2.6 | 2.6 | 0.00 | 0.00 | 0.00 | 48 | 1018.1 |
| 20260901173201 | 96 | 61 | 0.0 | 0.9 | 0.00 | 0.00 | 0.00 | 46 | 1018.1 |
| 20260901172658 | 97 | 161 | 0.9 | 1.7 | 0.00 | 0.00 | 0.00 | 47 | 1018.0 |
| 20260901172156 | 97 | 182 | 0.0 | 0.0 | 0.00 | 0.00 | 0.00 | 48 | 1018.1 |
| 20260901171649 | 98 | 59 | 1.7 | 1.7 | 0.00 | 0.00 | 0.00 | 47 | 1018.2 |
| 20260901171148 | 97 | 95 | 0.9 | 1.7 | 0.00 | 0.00 | 0.00 | 50 | 1018.1 |
| 20260901170643 | 96 | 32 | 0.9 | 0.9 | 0.00 | 0.00 | 0.00 | 50 | 1018.4 |
| 20260901170143 | 94 | 209 | 0.0 | 0.9 | 0.00 | 0.00 | 0.00 | 53 | 1018.3 |
| 20260901165641 | 94 | 104 | 0.0 | 0.9 | 0.00 | 0.00 | 0.00 | 54 | 1018.5 |
| 20260901165132 | 93 | 83 | 2.6 | 4.3 | 0.00 | 0.00 | 0.00 | 53 | 1018.3 |
| 20260901164628 | 93 | 246 | 0.9 | 0.9 | 0.00 | 0.00 | 0.00 | 53 | 1018.6 |
| 20260901164122 | 93 | 205 | 0.9 | 0.9 | 0.00 | 0.00 | 0.00 | 53 | 1018.5 |
| 20260901163618 | 94 | 199 | 1.7 | 2.6 | 0.00 | 0.00 | 0.00 | 52 | 1018.6 |
| 20260901163116 | 96 | 170 | 1.7 | 1.7 | 0.00 | 0.00 | 0.00 | 51 | 1018.8 |
| 20260901162612 | 96 | 187 | 0.9 | 2.6 | 0.00 | 0.00 | 0.00 | 51 | 1018.6 |
| 20260901162106 | 95 | 127 | 0.9 | 0.9 | 0.00 | 0.00 | 0.00 | 52 | 1018.8 |
| 20260901161605 | 95 | 147 | 1.7 | 1.7 | 0.00 | 0.00 | 0.00 | 51 | 1018.5 |
| 20260901161104 | 94 | 205 | 0.0 | 0.0 | 0.00 | 0.00 | 0.00 | 54 | 1018.9 |
| 20260901160601 | 94 | 167 | 0.9 | 0.9 | 0.00 | 0.00 | 0.00 | 53 | 1018.5 |
| 20260901160056 | 93 | 174 | 0.9 | 0.9 | 0.00 | 0.00 | 0.00 | 54 | 1018.4 |
| 20260901155555 | 93 | 210 | 1.7 | 1.7 | 0.00 | 0.00 | 0.00 | 55 | 1018.5 |
| 20260901155051 | 93 | 175 | 1.7 | 1.7 | 0.00 | 0.00 | 0.00 | 55 | 1018.5 |
| 20260901154550 | 93 | 192 | 0.9 | 1.7 | 0.00 | 0.00 | 0.00 | 55 | 1018.6 |
| 20260901154045 | 92 | 168 | 0.9 | 1.7 | 0.00 | 0.00 | 0.00 | 56 | 1018.6 |
| 20260901153540 | 92 | 193 | 1.7 | 2.6 | 0.00 | 0.00 | 0.00 | 56 | 1018.6 |
| 20260901153034 | 92 | 178 | 3.5 | 5.2 | 0.00 | 0.00 | 0.00 | 56 | 1018.6 |
| 20260901152529 | 92 | 267 | 1.7 | 1.7 | 0.00 | 0.00 | 0.00 | 57 | 1018.5 |
| 20260901152028 | 91 | 197 | 0.9 | 0.9 | 0.00 | 0.00 | 0.00 | 58 | 1018.6 |
| 20260901151524 | 91 | 275 | 1.7 | 2.6 | 0.00 | 0.00 | 0.00 | 58 | 1018.7 |
| 20260901151023 | 90 | 167 | 5.2 | 7.8 | 0.00 | 0.00 | 0.00 | 59 | 1018.6 |
| 20260901150521 | 91 | 271 | 0.9 | 1.7 | 0.00 | 0.00 | 0.00 | 59 | 1018.5 |
| 20260901150020 | 90 | 255 | 0.9 | 0.9 | 0.00 | 0.00 | 0.00 | 60 | 1018.7 |
| 20260901145513 | 90 | 155 | 2.6 | 4.3 | 0.00 | 0.00 | 0.00 | 61 | 1018.7 |
| 20260901145013 | 91 | 160 | 0.9 | 0.9 | 0.00 | 0.00 | 0.00 | 59 | 1018.6 |
| 20260901144508 | 90 | 202 | 0.0 | 0.9 | 0.00 | 0.00 | 0.00 | 61 | 1018.8 |
| 20260901144003 | 89 | 170 | 1.7 | 1.7 | 0.00 | 0.00 | 0.00 | 62 | 1018.7 |
| 20260901143459 | 89 | 243 | 0.9 | 1.7 | 0.00 | 0.00 | 0.00 | 63 | 1018.8 |
| 20260901142955 | 89 | 202 | 0.0 | 0.9 | 0.00 | 0.00 | 0.00 | 63 | 1019.0 |
| 20260901142450 | 88 | 201 | 0.0 | 0.0 | 0.00 | 0.00 | 0.00 | 65 | 1018.7 |
| 20260901141945 | 88 | 208 | 1.7 | 2.6 | 0.00 | 0.00 | 0.00 | 65 | 1018.7 |
| 20260901141444 | 87 | 162 | 0.9 | 1.7 | 0.00 | 0.00 | 0.00 | 66 | 1018.5 |
| 20260901140940 | 87 | 180 | 0.9 | 1.7 | 0.00 | 0.00 | 0.00 | 67 | 1018.6 |
| 20260901140437 | 87 | 162 | 0.9 | 0.9 | 0.00 | 0.00 | 0.00 | 66 | 1018.8 |
| 20260901135932 | 86 | 194 | 0.0 | 0.9 | 0.00 | 0.00 | 0.00 | 68 | 1018.7 |
| 20260901135427 | 85 | 135 | 1.7 | 1.7 | 0.00 | 0.00 | 0.00 | 69 | 1018.8 |
| 20260901134923 | 85 | 147 | 0.9 | 0.9 | 0.00 | 0.00 | 0.00 | 69 | 1018.7 |
| 20260901134418 | 85 | 196 | 0.0 | 0.0 | 0.00 | 0.00 | 0.00 | 70 | 1018.7 |
| 20260901133918 | 84 | 179 | 0.9 | 0.9 | 0.00 | 0.00 | 0.00 | 71 | 1018.6 |
| 20260901133418 | 84 | 209 | 1.7 | 1.7 | 0.00 | 0.00 | 0.00 | 71 | 1018.9 |
| 20260901132916 | 83 | 192 | 0.0 | 0.9 | 0.00 | 0.00 | 0.00 | 71 | 1018.8 |
| 20260901132411 | 83 | 219 | 0.0 | 0.9 | 0.00 | 0.00 | 0.00 | 71 | 1018.7 |
| 20260901131910 | 83 | 190 | 0.9 | 0.9 | 0.00 | 0.00 | 0.00 | 72 | 1018.8 |
| 20260901131410 | 83 | 218 | 0.9 | 1.7 | 0.00 | 0.00 | 0.00 | 72 | 1018.7 |
| 20260901130906 | 82 | 138 | 0.9 | 1.7 | 0.00 | 0.00 | 0.00 | 73 | 1018.5 |
| 20260901130400 | 82 | 185 | 0.0 | 0.9 | 0.00 | 0.00 | 0.00 | 73 | 1018.7 |
| 20260901125858 | 82 | 122 | 1.7 | 1.7 | 0.00 | 0.00 | 0.00 | 73 | 1018.8 |
| 20260901125357 | 81 | 185 | 0.9 | 0.9 | 0.00 | 0.00 | 0.00 | 73 | 1018.5 |
| 20260901124852 | 81 | 183 | 0.0 | 0.0 | 0.00 | 0.00 | 0.00 | 73 | 1018.7 |
| 20260901124348 | 81 | 200 | 0.0 | 0.0 | 0.00 | 0.00 | 0.00 | 74 | 1018.5 |
| 20260901123847 | 81 | 196 | 0.0 | 0.0 | 0.00 | 0.00 | 0.00 | 74 | 1018.3 |
| 20260901123342 | 80 | 170 | 0.9 | 0.9 | 0.00 | 0.00 | 0.00 | 75 | 1018.1 |
| 20260901122840 | 80 | 179 | 0.0 | 0.9 | 0.00 | 0.00 | 0.00 | 75 | 1018.3 |
| 20260901122335 | 80 | 195 | 0.0 | 0.0 | 0.00 | 0.00 | 0.00 | 75 | 1018.1 |
| 20260901121834 | 80 | 196 | 0.0 | 0.0 | 0.00 | 0.00 | 0.00 | 75 | 1017.9 |
| 20260901121330 | 80 | 185 | 0.0 | 0.0 | 0.00 | 0.00 | 0.00 | 75 | 1018.0 |
| 20260901120825 | 80 | 195 | 0.0 | 0.0 | 0.00 | 0.00 | 0.00 | 75 | 1017.9 |
| 20260901120319 | 80 | 194 | 0.0 | 0.0 | 0.00 | 0.00 | 0.00 | 75 | 1017.9 |
| 20260901115815 | 80 | 198 | 0.0 | 0.0 | 0.00 | 0.00 | 0.00 | 74 | 1017.7 |
| 20260901115310 | 80 | 198 | 0.9 | 0.9 | 0.00 | 0.00 | 0.00 | 74 | 1017.6 |
| 20260901114807 | 80 | 198 | 0.0 | 0.9 | 0.00 | 0.00 | 0.00 | 74 | 1017.7 |
| 20260901114302 | 80 | 192 | 0.0 | 0.0 | 0.00 | 0.00 | 0.00 | 73 | 1017.8 |
| 20260901113801 | 80 | 198 | 0.0 | 0.9 | 0.00 | 0.00 | 0.00 | 73 | 1017.5 |
| 20260901113255 | 81 | 203 | 0.0 | 0.0 | 0.00 | 0.00 | 0.00 | 73 | 1017.5 |
| 20260901112750 | 81 | 195 | 0.9 | 0.9 | 0.00 | 0.00 | 0.00 | 72 | 1017.5 |
| 20260901112249 | 81 | 173 | 1.7 | 2.6 | 0.00 | 0.00 | 0.00 | 72 | 1017.5 |
| 20260901111738 | 81 | 191 | 0.9 | 0.9 | 0.00 | 0.00 | 0.00 | 72 | 1017.5 |
| 20260901111237 | 81 | 176 | 2.6 | 2.6 | 0.00 | 0.00 | 0.00 | 72 | 1017.3 |
| 20260901110731 | 81 | 206 | 1.7 | 1.7 | 0.00 | 0.00 | 0.00 | 72 | 1017.3 |
| 20260901110227 | 80 | 192 | 0.0 | 0.0 | 0.00 | 0.00 | 0.00 | 72 | 1017.2 |
| 20260901105723 | 81 | 197 | 0.0 | 0.0 | 0.00 | 0.00 | 0.00 | 72 | 1017.3 |
| 20260901105223 | 81 | 197 | 0.0 | 0.0 | 0.00 | 0.00 | 0.00 | 71 | 1017.3 |
| 20260901104719 | 81 | 198 | 0.0 | 0.0 | 0.00 | 0.00 | 0.00 | 71 | 1017.4 |
| 20260901104215 | 81 | 179 | 0.9 | 1.7 | 0.00 | 0.00 | 0.00 | 71 | 1017.1 |
| 20260901103714 | 81 | 194 | 0.0 | 0.0 | 0.00 | 0.00 | 0.00 | 71 | 1017.4 |
| 20260901103209 | 81 | 183 | 0.9 | 0.9 | 0.00 | 0.00 | 0.00 | 71 | 1017.3 |
| 20260901102704 | 81 | 182 | 0.9 | 1.7 | 0.00 | 0.00 | 0.00 | 70 | 1017.7 |
| 20260901102203 | 81 | 201 | 0.9 | 0.9 | 0.00 | 0.00 | 0.00 | 70 | 1017.4 |
| 20260901101659 | 81 | 193 | 0.0 | 0.0 | 0.00 | 0.00 | 0.00 | 70 | 1017.3 |
| 20260901101158 | 81 | 182 | 0.0 | 0.9 | 0.00 | 0.00 | 0.00 | 70 | 1017.6 |
| 20260901100653 | 81 | 201 | 0.9 | 0.9 | 0.00 | 0.00 | 0.00 | 69 | 1017.4 |
| 20260901100147 | 81 | 187 | 0.0 | 0.0 | 0.00 | 0.00 | 0.00 | 69 | 1017.5 |
| 20260901095646 | 81 | 193 | 0.0 | 0.0 | 0.00 | 0.00 | 0.00 | 69 | 1017.6 |
| 20260901095144 | 81 | 185 | 0.0 | 0.9 | 0.00 | 0.00 | 0.00 | 68 | 1017.5 |
| 20260901094639 | 82 | 192 | 0.0 | 0.9 | 0.00 | 0.00 | 0.00 | 68 | 1017.6 |
| 20260901094138 | 82 | 200 | 0.9 | 0.9 | 0.00 | 0.00 | 0.00 | 68 | 1017.5 |
| 20260901093633 | 82 | 146 | 0.0 | 0.9 | 0.00 | 0.00 | 0.00 | 67 | 1017.4 |
| 20260901093127 | 82 | 198 | 0.0 | 0.0 | 0.00 | 0.00 | 0.00 | 67 | 1017.5 |
| 20260901092623 | 82 | 179 | 0.0 | 0.0 | 0.00 | 0.00 | 0.00 | 67 | 1017.6 |
| 20260901092119 | 82 | 133 | 0.0 | 0.0 | 0.00 | 0.00 | 0.00 | 67 | 1017.6 |
| 20260901091614 | 82 | 149 | 0.0 | 0.9 | 0.00 | 0.00 | 0.00 | 66 | 1017.7 |
| 20260901091109 | 82 | 183 | 0.0 | 0.0 | 0.00 | 0.00 | 0.00 | 66 | 1017.6 |
| 20260901090609 | 83 | 176 | 0.9 | 0.9 | 0.00 | 0.00 | 0.00 | 65 | 1017.4 |
| 20260901090105 | 83 | 189 | 0.0 | 0.9 | 0.00 | 0.00 | 0.00 | 65 | 1017.2 |
| 20260901085600 | 83 | 187 | 0.0 | 0.0 | 0.00 | 0.00 | 0.00 | 65 | 1017.3 |
| 20260901085056 | 83 | 190 | 0.9 | 0.9 | 0.00 | 0.00 | 0.00 | 64 | 1017.2 |
| 20260901084552 | 83 | 192 | 0.9 | 1.7 | 0.00 | 0.00 | 0.00 | 64 | 1017.2 |
| 20260901084048 | 84 | 194 | 0.9 | 0.9 | 0.00 | 0.00 | 0.00 | 63 | 1017.3 |
| 20260901083548 | 84 | 196 | 0.0 | 0.9 | 0.00 | 0.00 | 0.00 | 63 | 1017.2 |
| 20260901083046 | 84 | 162 | 0.9 | 0.9 | 0.00 | 0.00 | 0.00 | 63 | 1017.1 |
| 20260901082541 | 84 | 185 | 0.0 | 0.9 | 0.00 | 0.00 | 0.00 | 62 | 1017.3 |
| 20260901082037 | 84 | 198 | 0.9 | 0.9 | 0.00 | 0.00 | 0.00 | 62 | 1017.0 |
| 20260901081531 | 84 | 199 | 0.9 | 0.9 | 0.00 | 0.00 | 0.00 | 62 | 1017.2 |
| 20260901081026 | 84 | 197 | 0.0 | 0.9 | 0.00 | 0.00 | 0.00 | 62 | 1017.3 |
| 20260901080525 | 84 | 204 | 2.6 | 2.6 | 0.00 | 0.00 | 0.00 | 61 | 1017.3 |
| 20260901080020 | 84 | 181 | 1.7 | 1.7 | 0.00 | 0.00 | 0.00 | 61 | 1017.1 |
| 20260901075516 | 84 | 195 | 0.0 | 0.9 | 0.00 | 0.00 | 0.00 | 61 | 1017.1 |
| 20260901075015 | 84 | 183 | 0.9 | 0.9 | 0.00 | 0.00 | 0.00 | 61 | 1017.1 |
| 20260901074514 | 84 | 177 | 1.7 | 2.6 | 0.00 | 0.00 | 0.00 | 61 | 1017.0 |
| 20260901074009 | 84 | 193 | 0.9 | 1.7 | 0.00 | 0.00 | 0.00 | 62 | 1017.1 |
| 20260901073507 | 84 | 193 | 0.9 | 0.9 | 0.00 | 0.00 | 0.00 | 62 | 1017.0 |
| 20260901073001 | 85 | 189 | 0.9 | 0.9 | 0.00 | 0.00 | 0.00 | 61 | 1017.3 |
| 20260901072456 | 85 | 144 | 1.7 | 1.7 | 0.00 | 0.00 | 0.00 | 61 | 1017.3 |
| 20260901071951 | 85 | 166 | 0.9 | 1.7 | 0.00 | 0.00 | 0.00 | 61 | 1017.0 |
| 20260901071450 | 85 | 189 | 0.9 | 0.9 | 0.00 | 0.00 | 0.00 | 62 | 1017.0 |
| 20260901070949 | 85 | 188 | 0.0 | 0.9 | 0.00 | 0.00 | 0.00 | 62 | 1017.1 |
| 20260901070445 | 85 | 173 | 0.9 | 0.9 | 0.00 | 0.00 | 0.00 | 61 | 1017.1 |
| 20260901065943 | 85 | 205 | 0.9 | 1.7 | 0.00 | 0.00 | 0.00 | 61 | 1017.1 |
| 20260901065439 | 86 | 190 | 0.0 | 0.0 | 0.00 | 0.00 | 0.00 | 61 | 1017.1 |
| 20260901064934 | 86 | 161 | 0.9 | 0.9 | 0.00 | 0.00 | 0.00 | 60 | 1017.0 |
| 20260901064431 | 86 | 186 | 0.9 | 1.7 | 0.00 | 0.00 | 0.00 | 60 | 1016.9 |
| 20260901063927 | 86 | 189 | 0.0 | 0.9 | 0.00 | 0.00 | 0.00 | 60 | 1016.8 |
| 20260901063424 | 86 | 180 | 0.0 | 0.9 | 0.00 | 0.00 | 0.00 | 60 | 1017.0 |
| 20260901062920 | 86 | 175 | 0.0 | 0.9 | 0.00 | 0.00 | 0.00 | 59 | 1016.9 |
| 20260901062415 | 86 | 182 | 0.0 | 0.9 | 0.00 | 0.00 | 0.00 | 59 | 1017.0 |
| 20260901061911 | 86 | 178 | 1.7 | 2.6 | 0.00 | 0.00 | 0.00 | 59 | 1016.8 |
| 20260901061407 | 86 | 148 | 1.7 | 1.7 | 0.00 | 0.00 | 0.00 | 58 | 1016.8 |
| 20260901060901 | 87 | 170 | 0.0 | 0.0 | 0.00 | 0.00 | 0.00 | 57 | 1016.8 |
| 20260901060357 | 86 | 178 | 0.9 | 0.9 | 0.00 | 0.00 | 0.00 | 57 | 1016.7 |
| 20260901055856 | 87 | 203 | 0.9 | 1.7 | 0.00 | 0.00 | 0.00 | 57 | 1016.6 |
| 20260901055353 | 87 | 176 | 0.9 | 1.7 | 0.00 | 0.00 | 0.00 | 56 | 1016.6 |
| 20260901054849 | 87 | 182 | 1.7 | 1.7 | 0.00 | 0.00 | 0.00 | 56 | 1016.7 |
| 20260901054346 | 87 | 174 | 1.7 | 1.7 | 0.00 | 0.00 | 0.00 | 55 | 1016.5 |
| 20260901053842 | 87 | 115 | 5.2 | 7.0 | 0.00 | 0.00 | 0.00 | 55 | 1016.4 |
| 20260901053337 | 87 | 169 | 4.3 | 5.2 | 0.00 | 0.00 | 0.00 | 55 | 1016.3 |
| 20260901052833 | 87 | 120 | 0.9 | 1.7 | 0.00 | 0.00 | 0.00 | 55 | 1016.4 |
| 20260901052328 | 87 | 152 | 1.7 | 2.6 | 0.00 | 0.00 | 0.00 | 54 | 1016.3 |
| 20260901051826 | 87 | 139 | 2.6 | 4.3 | 0.00 | 0.00 | 0.00 | 54 | 1016.1 |
| 20260901051322 | 88 | 171 | 2.6 | 4.3 | 0.00 | 0.00 | 0.00 | 53 | 1016.3 |
| 20260901050817 | 88 | 167 | 2.6 | 5.2 | 0.00 | 0.00 | 0.00 | 53 | 1016.3 |
| 20260901050313 | 87 | 180 | 0.9 | 0.9 | 0.00 | 0.00 | 0.00 | 54 | 1016.3 |
| 20260901045808 | 87 | 156 | 0.9 | 0.9 | 0.00 | 0.00 | 0.00 | 54 | 1016.1 |
| 20260901045302 | 87 | 166 | 0.0 | 0.9 | 0.00 | 0.00 | 0.00 | 55 | 1016.1 |
| 20260901044757 | 86 | 158 | 0.0 | 0.9 | 0.00 | 0.00 | 0.00 | 55 | 1016.0 |
| 20260901044253 | 86 | 190 | 0.0 | 0.0 | 0.00 | 0.00 | 0.00 | 56 | 1016.2 |
| 20260901043749 | 87 | 190 | 0.0 | 0.0 | 0.00 | 0.00 | 0.00 | 57 | 1016.0 |
| 20260901043244 | 87 | 181 | 0.0 | 0.0 | 0.00 | 0.00 | 0.00 | 56 | 1016.2 |
| 20260901042738 | 87 | 189 | 0.0 | 0.0 | 0.00 | 0.00 | 0.00 | 55 | 1016.2 |
| 20260901042238 | 87 | 182 | 0.0 | 0.0 | 0.00 | 0.00 | 0.00 | 55 | 1016.1 |
| 20260901041734 | 86 | 138 | 0.0 | 0.0 | 0.00 | 0.00 | 0.00 | 55 | 1016.0 |
| 20260901041234 | 87 | 204 | 0.0 | 0.0 | 0.00 | 0.00 | 0.00 | 54 | 1016.0 |
| 20260901040729 | 87 | 198 | 0.0 | 0.0 | 0.00 | 0.00 | 0.00 | 53 | 1015.6 |
| 20260901040228 | 88 | 192 | 0.0 | 0.0 | 0.00 | 0.00 | 0.00 | 52 | 1016.0 |
| 20260901035727 | 87 | 184 | 0.0 | 0.0 | 0.00 | 0.00 | 0.00 | 52 | 1015.9 |
| 20260901035226 | 88 | 191 | 0.0 | 0.0 | 0.00 | 0.00 | 0.00 | 52 | 1016.0 |
| 20260901034725 | 88 | 179 | 0.0 | 0.0 | 0.00 | 0.00 | 0.00 | 51 | 1016.0 |
| 20260901034220 | 89 | 160 | 0.0 | 0.0 | 0.00 | 0.00 | 0.00 | 50 | 1015.8 |
| 20260901033720 | 88 | 175 | 0.0 | 0.0 | 0.00 | 0.00 | 0.00 | 50 | 1015.8 |
| 20260901033219 | 87 | 200 | 0.0 | 0.0 | 0.00 | 0.00 | 0.00 | 50 | 1015.8 |
| 20260901032718 | 88 | 200 | 0.0 | 0.0 | 0.00 | 0.00 | 0.00 | 49 | 1015.8 |
| 20260901032212 | 89 | 199 | 0.0 | 0.0 | 0.00 | 0.00 | 0.00 | 48 | 1015.8 |
| 20260901031708 | 89 | 196 | 0.0 | 0.0 | 0.00 | 0.00 | 0.00 | 47 | 1015.9 |
| 20260901031203 | 89 | 199 | 0.0 | 0.0 | 0.00 | 0.00 | 0.00 | 47 | 1015.7 |
| 20260901030658 | 90 | 202 | 0.9 | 0.9 | 0.00 | 0.00 | 0.00 | 46 | 1015.8 |
| 20260901030153 | 90 | 203 | 0.0 | 0.0 | 0.00 | 0.00 | 0.00 | 46 | 1015.8 |
| 20260901025648 | 90 | 196 | 0.0 | 0.0 | 0.00 | 0.00 | 0.00 | 46 | 1015.6 |
| 20260901025143 | 90 | 195 | 0.0 | 0.0 | 0.00 | 0.00 | 0.00 | 46 | 1015.7 |
| 20260901024642 | 90 | 199 | 0.0 | 0.0 | 0.00 | 0.00 | 0.00 | 46 | 1015.4 |
| 20260901024141 | 91 | 197 | 0.0 | 0.0 | 0.00 | 0.00 | 0.00 | 45 | 1015.5 |
| 20260901023640 | 91 | 195 | 0.0 | 0.0 | 0.00 | 0.00 | 0.00 | 45 | 1015.4 |
| 20260901023135 | 91 | 200 | 0.0 | 0.0 | 0.00 | 0.00 | 0.00 | 44 | 1015.4 |
| 20260901022630 | 91 | 202 | 0.9 | 0.9 | 0.00 | 0.00 | 0.00 | 44 | 1015.1 |
| 20260901022126 | 91 | 197 | 0.0 | 0.0 | 0.00 | 0.00 | 0.00 | 44 | 1015.3 |
| 20260901021621 | 92 | 201 | 0.0 | 0.0 | 0.00 | 0.00 | 0.00 | 43 | 1015.1 |
| 20260901021116 | 92 | 191 | 0.0 | 0.9 | 0.00 | 0.00 | 0.00 | 43 | 1014.9 |
| 20260901020612 | 92 | 192 | 0.0 | 0.0 | 0.00 | 0.00 | 0.00 | 42 | 1015.0 |
| 20260901020107 | 92 | 193 | 0.0 | 0.9 | 0.00 | 0.00 | 0.00 | 42 | 1015.0 |
| 20260901015603 | 93 | 201 | 0.0 | 0.0 | 0.00 | 0.00 | 0.00 | 43 | 1015.1 |
| 20260901015102 | 93 | 187 | 0.0 | 0.0 | 0.00 | 0.00 | 0.00 | 42 | 1015.1 |
| 20260901014557 | 93 | 211 | 0.9 | 0.9 | 0.00 | 0.00 | 0.00 | 42 | 1015.1 |
| 20260901014053 | 93 | 195 | 0.0 | 0.9 | 0.00 | 0.00 | 0.00 | 42 | 1015.0 |
| 20260901013549 | 93 | 199 | 0.0 | 0.9 | 0.00 | 0.00 | 0.00 | 42 | 1015.0 |
| 20260901013045 | 93 | 190 | 0.0 | 0.9 | 0.00 | 0.00 | 0.00 | 42 | 1014.8 |
| 20260901012544 | 93 | 200 | 0.0 | 0.9 | 0.00 | 0.00 | 0.00 | 43 | 1014.9 |
| 20260901012039 | 94 | 171 | 0.0 | 0.9 | 0.00 | 0.00 | 0.00 | 43 | 1014.9 |
| 20260901011536 | 94 | 192 | 0.0 | 0.9 | 0.00 | 0.00 | 0.00 | 42 | 1014.6 |
| 20260901011033 | 95 | 176 | 0.9 | 0.9 | 0.00 | 0.00 | 0.00 | 41 | 1014.5 |
| 20260901010528 | 95 | 191 | 0.0 | 0.0 | 0.00 | 0.00 | 0.00 | 41 | 1014.8 |
| 20260901010022 | 95 | 168 | 0.9 | 0.9 | 0.00 | 0.00 | 0.00 | 40 | 1014.8 |
| 20260901005522 | 96 | 168 | 0.9 | 0.9 | 0.00 | 0.00 | 0.00 | 40 | 1014.6 |
| 20260901005018 | 96 | 168 | 0.9 | 0.9 | 0.00 | 0.00 | 0.00 | 39 | 1014.8 |
| 20260901004518 | 96 | 184 | 0.0 | 0.0 | 0.00 | 0.00 | 0.00 | 39 | 1014.5 |
| 20260901004013 | 96 | 151 | 1.7 | 1.7 | 0.00 | 0.00 | 0.00 | 39 | 1014.6 |
| 20260901003508 | 97 | 122 | 2.6 | 2.6 | 0.00 | 0.00 | 0.00 | 38 | 1014.6 |
| 20260901003006 | 97 | 160 | 2.6 | 2.6 | 0.00 | 0.00 | 0.00 | 38 | 1014.5 |
| 20260901002505 | 97 | 170 | 2.6 | 2.6 | 0.00 | 0.00 | 0.00 | 38 | 1014.7 |
| 20260901002000 | 98 | 114 | 2.6 | 2.6 | 0.00 | 0.00 | 0.00 | 37 | 1014.7 |
| 20260901001455 | 98 | 87 | 1.7 | 1.7 | 0.00 | 0.00 | 0.00 | 36 | 1014.5 |
| 20260901000951 | 98 | 97 | 0.9 | 0.9 | 0.00 | 0.00 | 0.00 | 36 | 1014.6 |
| 20260901000445 | 98 | 153 | 0.0 | 0.9 | 0.00 | 0.00 | 0.00 | 36 | 1014.7 |
| 20260831235944 | 99 | 195 | 0.0 | 0.0 | 0.00 | 0.00 | 0.00 | 36 | 1014.4 |
| 20260831235440 | 99 | 185 | 0.9 | 0.9 | 0.00 | 0.00 | 0.00 | 35 | 1014.5 |
| 20260831234935 | 99 | 193 | 1.7 | 1.7 | 0.00 | 0.00 | 0.00 | 35 | 1014.4 |
| 20260831234429 | 99 | 173 | 2.6 | 4.3 | 0.00 | 0.00 | 0.00 | 35 | 1014.8 |
| 20260831233925 | 99 | 151 | 0.9 | 1.7 | 0.00 | 0.00 | 0.00 | 35 | 1014.7 |
| 20260831233420 | 99 | 175 | 1.7 | 1.7 | 0.00 | 0.00 | 0.00 | 34 | 1014.7 |
| 20260831232915 | 99 | 147 | 1.7 | 2.6 | 0.00 | 0.00 | 0.00 | 34 | 1014.6 |
| 20260831232411 | 100 | 108 | 0.9 | 0.9 | 0.00 | 0.00 | 0.00 | 35 | 1014.4 |
| 20260831231907 | 100 | 210 | 1.7 | 1.7 | 0.00 | 0.00 | 0.00 | 33 | 1014.5 |
| 20260831231403 | 100 | 198 | 0.0 | 0.0 | 0.00 | 0.00 | 0.00 | 33 | 1014.6 |